Погода в Леуне

Россия / Пермский край     56°13′42″N   56°47′43″E
темп.,
°C
ветер,
м/с
пор.,
м/с
влажн.,
%
обл.,
%
осадки,
мм/ч
давл.,
гПа
погр.,
м
16 мая, вс
вс1623:00+19юз286498 0.0 1020132
02:00+17ююз2366100 0.0 102053
05:00+16ююз2269100 0.0 102139
08:00+20ююз37545 0.0 1021234
11:00+26юз47374 0.0 1020744
14:00+29юз573015 0.0 10202312
17:00+29юз58273 0.0 10192873
20:00+24юз26460 0.0 1018130
17 мая, пн
пн1723:00+19ююз27585 0.0 1018113
02:00+17ю386214 0.0 1018123
05:00+16ююз310624 0.0 1019185
08:00+21ююз37545 0.0 1019274
11:00+26юз484088 0.0 1019851
14:00+28зюз693424 0.0 10181600
17:00+28зюз511356 0.0 10172574
20:00+24зюз385225 0.0 1017302
18 мая, вт
вт1823:00+18ююз3106438 0.0 1018216
02:00+15з228026 0.1 101823
05:00+14зсз11829 0.1 101811
08:00+18ссз24655 0.0 1019349
11:00+22сз35495 0.0 10191346
14:00+24ссз463557 0.0 10191705
17:00+22ссв56445 0.0 10201320
20:00+19ссв375630 0.0 1021599
19 мая, ср
ср1923:00+13всв397515 0.0 1023386
02:00+11в411753 0.0 1023476
05:00+9в310845 0.0 1024407
08:00+13в59637 0.0 1024570
11:00+19вюв464145 0.0 1023903
14:00+22вюв4432100 0.0 10231307
17:00+22вюв4432100 0.0 10221283
20:00+18в25495 0.0 1022134
20 мая, чт
чт2023:00+13вюв395773 0.0 1022146
02:00+11юв246385 0.0 102275
05:00+10ююв247154 0.0 102356
08:00+16ююз39525 0.0 1023366
11:00+22ююз34371 0.0 1022995
14:00+24ююз34320 0.0 10211685
17:00+24юз45310 0.0 10201766
20:00+20юз24520 0.0 102080